Location: Lombard
(41.8800°N, 88.0080°W)
Time: 14:29:07
(UTC-06:00)

Transit 4A - Pass Details

Date: 05 December 2023
Orbit: 870 x 973 km, 66.8° (Epoch: 03 March)

Event Time Altitude Azimuth Distance (km) Brightness Sun altitude
Rises 22:31:27 0° 285° (WNW) 3,662 - -65.5°
Reaches altitude 10° 22:37:23 10° 327° (NNW) 2,699 - -66.2°
Maximum altitude 22:38:02 10° 334° (NNW) 2,685 - -66.3°
Drops below altitude 10° 22:38:42 10° 340° (NNW) 2,694 - -66.4°
Sets 22:44:35 0° 23° (NNE) 3,613 - -67.1°
